Hauptseite
METAR-TAF:

METAR-TAF

Flughäfen :

Bohrplattform

Awg-1, Niederlande

Breite: 53-29-30N, Länge: 5-56-30E, Höhe: 33 m

Beobachtung

Neuester Wetterbericht von vor 38 Minuten, um 06:55 UTC
Wind 21 kt aus Süd
Temperatur 10°C
Luftfeuchtigkeit 93%
Luftdruck 1015 hPa
Sichtweite 10 km oder mehr

METAR: EHMA 280655Z AUTO 19021KT 9999 // NCD 10/09 Q1015 RE//

Zeit: 09:33 (07:33 UTC)


TAF: fehlend

Wetterbeobachtungen und Prognosen von mehr als 4000 Flughäfen (METAR und TAF Bericht).

Die verfügbaren Stationen werden durch gelbe und rote Markierungen auf der Karte dargestellt.

Führen Sie die Maus auf sie, um den Namen der Station zu sehen.

Darauf klicken, um die Beobachtung von Wetterbeobachtungen und Prognosen zu sehen.

Um die Karte zu ändern : klicken Sie auf den grünen Tasten mit einem schwarzen Kreuz Zum Vergrößern, auf den grünen Button mit einem Gedankenstrich zu verkleinern, oder auf die grünen Pfeile für benachbarte Karten.


METAR-TAF: